When you browse on this site, cookies collect data to enhance your experience and personalize the content and advertising you see.
Visit our Privacy Policy to learn more. By continuing to use the site, you agree to this use of cookies and data.

Meteo pe oră la Irbid

Astăzi, 24 Septembrie, Joi

Timp Temperatura Precipitaţii Vânt Presiune Umiditate
00:00 +19°C° 0 mm 2 m/s 710 mmHg 93%
01:00 +19°C° 0 mm 2 m/s 710 mmHg 93%
02:00 +19°C° 0 mm 2 m/s 710 mmHg 93%
03:00 +19°C° 0 mm 2 m/s 710 mmHg 93%
04:00 +20°C° 0 mm 1 m/s 710 mmHg 92%
05:00 +20°C° 0 mm 1 m/s 711 mmHg 92%
06:00 +21°C° 0 mm 2 m/s 711 mmHg 85%
07:00 +23°C° 0 mm 2 m/s 711 mmHg 77%
08:00 +24°C° 0 mm 2 m/s 711 mmHg 69%
09:00 +26°C° 0 mm 3 m/s 711 mmHg 59%
10:00 +28°C° 0 mm 3 m/s 712 mmHg 49%
11:00 +30°C° 0 mm 3 m/s 712 mmHg 38%
12:00 +32°C° 0 mm 4 m/s 711 mmHg 36%
13:00 +33°C° 0 mm 6 m/s 711 mmHg 34%
14:00 +34°C° 0 mm 7 m/s 710 mmHg 32%
15:00 +32°C° 0 mm 7 m/s 710 mmHg 39%
16:00 +29°C° 0 mm 6 m/s 710 mmHg 45%
17:00 +27°C° 0 mm 6 m/s 710 mmHg 51%
18:00 +25°C° 0 mm 4 m/s 710 mmHg 61%
19:00 +22°C° 0 mm 3 m/s 710 mmHg 72%
20:00 +19°C° 0 mm 2 m/s 710 mmHg 82%
21:00 +19°C° 0 mm 2 m/s 710 mmHg 84%
22:00 +18°C° 0 mm 2 m/s 710 mmHg 86%
23:00 +19°C° 0 mm 1 m/s 709 mmHg 88%

Mâine, 25 Septembrie, Vineri

Timp Temperatura Precipitaţii Vânt Presiune Umiditate
00:00 +18°C° 0 mm 1 m/s 709 mmHg 88%
01:00 +18°C° 0 mm 1 m/s 709 mmHg 89%
02:00 +16°C° 0 mm 1 m/s 709 mmHg 90%
03:00 +16°C° 0 mm 1 m/s 709 mmHg 91%
04:00 +16°C° 0 mm 1 m/s 709 mmHg 92%
05:00 +16°C° 0 mm 1 m/s 709 mmHg 93%
06:00 +19°C° 0 mm 1 m/s 709 mmHg 85%
07:00 +21°C° 0 mm 1 m/s 710 mmHg 77%
08:00 +23°C° 0 mm 2 m/s 710 mmHg 69%
09:00 +25°C° 0 mm 2 m/s 710 mmHg 59%
10:00 +27°C° 0 mm 3 m/s 710 mmHg 50%
11:00 +29°C° 0 mm 4 m/s 710 mmHg 40%
12:00 +30°C° 0 mm 4 m/s 710 mmHg 36%
13:00 +32°C° 0 mm 5 m/s 709 mmHg 33%
14:00 +34°C° 0 mm 6 m/s 709 mmHg 29%
15:00 +32°C° 0 mm 6 m/s 709 mmHg 37%
16:00 +29°C° 0 mm 6 m/s 708 mmHg 45%
17:00 +27°C° 0 mm 6 m/s 708 mmHg 53%
18:00 +25°C° 0 mm 5 m/s 708 mmHg 64%
19:00 +22°C° 0 mm 4 m/s 708 mmHg 74%
20:00 +20°C° 0 mm 2 m/s 708 mmHg 84%
21:00 +20°C° 0 mm 2 m/s 708 mmHg 86%
22:00 +20°C° 0 mm 2 m/s 708 mmHg 88%
23:00 +19°C° 0 mm 2 m/s 708 mmHg 90%

Poimâine, 26 Septembrie, Sâmbătă

Timp Temperatura Precipitaţii Vânt Presiune Umiditate
00:00 +19°C° 0 mm 2 m/s 708 mmHg 92%
01:00 +19°C° 0 mm 2 m/s 708 mmHg 93%
02:00 +19°C° 0 mm 2 m/s 708 mmHg 94%
03:00 +19°C° 0 mm 2 m/s 708 mmHg 94%
04:00 +19°C° 0 mm 2 m/s 708 mmHg 93%
05:00 +20°C° 0 mm 2 m/s 708 mmHg 92%
06:00 +21°C° 0 mm 2 m/s 708 mmHg 85%
07:00 +23°C° 0 mm 2 m/s 709 mmHg 78%
08:00 +25°C° 0 mm 3 m/s 709 mmHg 70%
09:00 +26°C° 0 mm 3 m/s 709 mmHg 62%
10:00 +28°C° 0 mm 4 m/s 709 mmHg 53%
11:00 +29°C° 0 mm 4 m/s 709 mmHg 44%
12:00 +30°C° 0 mm 5 m/s 709 mmHg 40%
13:00 +32°C° 0 mm 6 m/s 709 mmHg 36%
14:00 +33°C° 0 mm 7 m/s 709 mmHg 31%
15:00 +30°C° 0 mm 6 m/s 709 mmHg 37%
16:00 +29°C° 0 mm 6 m/s 708 mmHg 43%
17:00 +27°C° 0 mm 6 m/s 708 mmHg 49%
18:00 +25°C° 0 mm 5 m/s 708 mmHg 60%
19:00 +22°C° 0 mm 3 m/s 709 mmHg 71%
20:00 +20°C° 0 mm 2 m/s 709 mmHg 82%
21:00 +19°C° 0 mm 2 m/s 709 mmHg 84%
22:00 +19°C° 0 mm 1 m/s 709 mmHg 87%
23:00 +18°C° 0 mm 1 m/s 709 mmHg 89%

27 Septembrie, Duminică

Timp Temperatura Precipitaţii Vânt Presiune Umiditate
00:00 +18°C° 0 mm 1 m/s 709 mmHg 89%
01:00 +18°C° 0 mm 1 m/s 709 mmHg 90%
02:00 +18°C° 0 mm 1 m/s 709 mmHg 90%
03:00 +18°C° 0 mm 1 m/s 709 mmHg 91%
04:00 +15°C° 0 mm 0 m/s 709 mmHg 92%
05:00 +15°C° 0 mm 0 m/s 709 mmHg 93%
06:00 +17°C° 0 mm 0 m/s 710 mmHg 83%
07:00 +20°C° 0 mm 0 m/s 711 mmHg 74%
08:00 +22°C° 0 mm 0 m/s 711 mmHg 64%
09:00 +27°C° 0 mm 1 m/s 712 mmHg 54%
10:00 +29°C° 0 mm 1 m/s 712 mmHg 43%
11:00 +31°C° 0 mm 2 m/s 712 mmHg 33%
12:00 +32°C° 0 mm 2 m/s 712 mmHg 30%
13:00 +34°C° 0 mm 2 m/s 711 mmHg 27%
14:00 +35°C° 0 mm 3 m/s 711 mmHg 23%
15:00 +34°C° 0 mm 3 m/s 711 mmHg 29%
16:00 +33°C° 0 mm 4 m/s 711 mmHg 34%
17:00 +30°C° 0 mm 4 m/s 711 mmHg 40%
18:00 +28°C° 0 mm 3 m/s 711 mmHg 51%
19:00 +25°C° 0 mm 2 m/s 711 mmHg 62%
20:00 +23°C° 0 mm 1 m/s 711 mmHg 73%
21:00 +22°C° 0 mm 1 m/s 711 mmHg 74%
22:00 +22°C° 0 mm 1 m/s 711 mmHg 75%
23:00 +20°C° 0 mm 0 m/s 711 mmHg 76%

28 Septembrie, Luni

Timp Temperatura Precipitaţii Vânt Presiune Umiditate
00:00 +22°C° 0 mm 1 m/s 711 mmHg 73%
01:00 +22°C° 0 mm 1 m/s 711 mmHg 71%
02:00 +22°C° 0 mm 1 m/s 711 mmHg 68%
03:00 +22°C° 0 mm 1 m/s 711 mmHg 67%
04:00 +22°C° 0 mm 1 m/s 711 mmHg 65%
05:00 +22°C° 0 mm 1 m/s 711 mmHg 64%
06:00 +25°C° 0 mm 1 m/s 712 mmHg 52%
07:00 +28°C° 0 mm 1 m/s 713 mmHg 40%
08:00 +31°C° 0 mm 1 m/s 713 mmHg 28%
09:00 +33°C° 0 mm 1 m/s 713 mmHg 25%
10:00 +36°C° 0 mm 2 m/s 713 mmHg 22%
11:00 +38°C° 0 mm 2 m/s 713 mmHg 19%
12:00 +38°C° 0 mm 3 m/s 713 mmHg 17%
13:00 +40°C° 0 mm 4 m/s 713 mmHg 15%
14:00 +41°C° 0 mm 4 m/s 712 mmHg 13%
15:00 +40°C° 0 mm 4 m/s 712 mmHg 16%
16:00 +37°C° 0 mm 5 m/s 712 mmHg 18%
17:00 +35°C° 0 mm 5 m/s 711 mmHg 21%
18:00 +32°C° 0 mm 4 m/s 711 mmHg 27%
19:00 +29°C° 0 mm 2 m/s 711 mmHg 33%
20:00 +26°C° 0 mm 1 m/s 711 mmHg 39%
21:00 +26°C° 0 mm 1 m/s 711 mmHg 38%
22:00 +25°C° 0 mm 1 m/s 711 mmHg 37%
23:00 +25°C° 0 mm 1 m/s 711 mmHg 36%

29 Septembrie, Marţi

Timp Temperatura Precipitaţii Vânt Presiune Umiditate
00:00 +24°C° 0 mm 1 m/s 711 mmHg 34%
01:00 +24°C° 0 mm 1 m/s 711 mmHg 32%
02:00 +23°C° 0 mm 1 m/s 711 mmHg 30%
03:00 +23°C° 0 mm 1 m/s 711 mmHg 29%
04:00 +23°C° 0 mm 1 m/s 711 mmHg 29%
05:00 +20°C° 0 mm 0 m/s 710 mmHg 29%
06:00 +26°C° 0 mm 1 m/s 711 mmHg 25%
07:00 +29°C° 0 mm 1 m/s 712 mmHg 20%
08:00 +33°C° 0 mm 1 m/s 712 mmHg 15%
09:00 +35°C° 0 mm 1 m/s 712 mmHg 14%
10:00 +37°C° 0 mm 1 m/s 712 mmHg 13%
11:00 +39°C° 0 mm 2 m/s 712 mmHg 11%
12:00 +40°C° 0 mm 3 m/s 711 mmHg 11%
13:00 +40°C° 0 mm 3 m/s 711 mmHg 10%
14:00 +42°C° 0 mm 4 m/s 710 mmHg 10%
15:00 +40°C° 0 mm 4 m/s 710 mmHg 13%
16:00 +37°C° 0 mm 5 m/s 709 mmHg 16%
17:00 +35°C° 0 mm 5 m/s 709 mmHg 19%
18:00 +33°C° 0 mm 4 m/s 709 mmHg 24%
19:00 +29°C° 0 mm 3 m/s 709 mmHg 29%
20:00 +26°C° 0 mm 2 m/s 708 mmHg 33%
21:00 +25°C° 0 mm 1 m/s 708 mmHg 35%
22:00 +24°C° 0 mm 1 m/s 708 mmHg 37%
23:00 +23°C° 0 mm 1 m/s 708 mmHg 39%
Arată mai mult